Location: Rotheul
(50.2849°N, 11.2349°E)
Time: 08:12:59
(UTC+02:00)

ISS - Pass Details

Date: 21 May 2018
Orbit: 402 x 407 km, 51.6° (Epoch: 24 May)

Event Time Altitude Azimuth Distance (km) Brightness Sun altitude
Rises 02:19:58 0° 281° (W) 2,319 0.0 -18.0°
Reaches altitude 10° 02:22:03 10° 283° (WNW) 1,459 -1.1 -17.9°
Maximum altitude 02:25:20 76° 10° (N) 420 -3.7 -17.7°
Drops below altitude 10° 02:28:35 10° 96° (E) 1,456 -0.9 -17.6°
Sets 02:30:40 0° 98° (E) 2,314 0.2 -17.4°
